Harrison, AR

7:00 PM CDT on September 19, 2017 (GMT -0500)
Boone County

Weather History for KHRO - December, 2011

Change the Weather History Date:

Monday, December 26, 2011

  Actual Average Record
Temperature  
Mean Temperature 37 °F 36 °F  
Max Temperature 40 °F 46 °F 72 °F (1971)
Min Temperature 33 °F 27 °F -1 °F (1983)
Degree Days  
Heating Degree Days 28 29  
Month to date heating degree days 632 690  
Since 1 July heating degree days 1328 1454  
Cooling Degree Days 0 0  
Month to date cooling degree days 0 0  
Year to date cooling degree days 1863 1416  
Moisture  
Dew Point 32 °F    
Average Humidity 70    
Maximum Humidity 92    
Minimum Humidity 48    
Precipitation  
Precipitation 0.54 in 0.10 in 0.77 in (2015)
Month to date precipitation 3.74 2.75  
Year to date precipitation 52.01 43.69  
Snow  
Snow 0.00 in 0.10 in 6.00 in (1939)
Month to date snowfall 0.9 0.8  
Since 1 July snowfall 0.9 1.3  
Snow Depth 0.00 in    
Sea Level Pressure  
Sea Level Pressure 30.06 in    
Wind  
Wind Speed 5 mph (East)    
Max Wind Speed 10 mph    
Max Gust Speed 15 mph    
Visibility 6 miles    
Events Rain    
T = Trace of Precipitation, MM = Missing Value Source: NWS Daily Summary

Daily Weather History Graph

Daily Weather History Graph

Search for Another Location

Airport or City:

Trip Planner

Search our weather history database for the weather conditions in past years. The results will help you decide how hot, cold, wet, or windy it might be!

Date:

Astronomy

Dec. 26, 2011 Rise Set
Actual Time 7:22 AM CST 5:04 PM CST
Civil Twilight 6:53 AM CST 5:32 PM CST
Nautical Twilight 6:21 AM CST 6:05 PM CST
Astronomical Twilight 5:49 AM CST 6:36 PM CST
Moon 8:45 AM CST (12/26) 7:29 PM CST (12/26)
Length of Visible Light 10h 39m
Length of Day
9h 41m
Waxing Crescent, 5% of the Moon is Illuminated
Dec 26
Waxing Crescent
Jan 1
First Quarter
Jan 9
Full
Jan 16
Last Quarter
Jan 23
New

Hourly Weather History & Observations

Time (CST) Temp. Windchill Dew Point Humidity Pressure Visibility Wind Dir Wind Speed Gust Speed Precip Events Conditions
12:53 AM 37.9 °F 35.5 °F 21.9 °F 53% 30.32 in 10.0 mi SSE 3.5 mph - N/A   Clear
1:53 AM 37.9 °F 34.4 °F 23.0 °F 55% 30.31 in 10.0 mi SE 4.6 mph - N/A   Clear
2:53 AM 37.0 °F 33.3 °F 23.0 °F 57% 30.30 in 10.0 mi East 4.6 mph - N/A   Clear
3:53 AM 37.0 °F 33.3 °F 25.0 °F 62% 30.27 in 10.0 mi East 4.6 mph - N/A   Clear
4:53 AM 36.0 °F 29.6 °F 26.1 °F 67% 30.27 in 10.0 mi SSE 8.1 mph - N/A   Mostly Cloudy
5:53 AM 37.4 °F 32.8 °F 26.6 °F 65% 30.26 in 10.0 mi SSE 5.8 mph - N/A   Overcast
6:53 AM 37.0 °F 33.3 °F 26.1 °F 65% 30.26 in 10.0 mi SE 4.6 mph - N/A   Overcast
7:53 AM 36.0 °F - 28.0 °F 73% 30.25 in 10.0 mi Calm Calm - 0.00 in   Overcast
8:53 AM 37.0 °F 33.3 °F 28.0 °F 70% 30.25 in 10.0 mi East 4.6 mph - 0.00 in   Overcast
9:53 AM 36.0 °F - 30.0 °F 79% 30.23 in 10.0 mi Calm Calm - 0.01 in   Overcast
10:53 AM 36.0 °F 30.3 °F 30.9 °F 82% 30.20 in 10.0 mi ESE 6.9 mph - 0.03 in   Overcast
11:53 AM 36.0 °F 31.1 °F 30.9 °F 82% 30.15 in 10.0 mi East 5.8 mph - 0.00 in   Overcast
12:53 PM 35.1 °F 31.0 °F 33.1 °F 92% 30.12 in 4.0 mi East 4.6 mph - 0.05 in Rain Rain
1:02 PM 35.6 °F 29.2 °F 33.8 °F 93% 30.10 in 2.0 mi ESE 8.1 mph - 0.05 in Rain Heavy Rain
1:13 PM 35.6 °F 30.7 °F 33.8 °F 93% 30.09 in 5.0 mi ESE 5.8 mph - 0.07 in Rain Rain
1:53 PM 35.1 °F - 34.0 °F 96% 30.08 in 4.0 mi Calm Calm - 0.18 in Rain Rain
2:01 PM 35.6 °F 32.8 °F 33.8 °F 93% 30.05 in 5.0 mi ENE 3.5 mph - 0.01 in Rain Rain
2:25 PM 35.6 °F 30.7 °F 33.8 °F 93% 30.03 in 4.0 mi East 5.8 mph - 0.05 in Rain Rain
2:53 PM 35.1 °F 29.3 °F 34.0 °F 96% 30.05 in 3.0 mi ESE 6.9 mph - 0.11 in Rain Rain
3:06 PM 35.6 °F 30.7 °F 33.8 °F 93% 30.05 in 4.0 mi SSE 5.8 mph - 0.01 in Rain Rain
3:36 PM 35.6 °F 32.8 °F 33.8 °F 93% 30.03 in 6.0 mi ESE 3.5 mph - 0.02 in Rain Light Rain
3:53 PM 35.1 °F 30.1 °F 34.0 °F 96% 30.02 in 6.0 mi East 5.8 mph - 0.03 in Rain Light Rain
4:18 PM 35.6 °F 31.7 °F 33.8 °F 93% 29.99 in 6.0 mi ESE 4.6 mph - 0.00 in Rain Light Rain
4:53 PM 35.1 °F 29.3 °F 34.0 °F 96% 30.00 in 7.0 mi East 6.9 mph - 0.04 in Rain Light Rain
5:11 PM 33.8 °F 27.7 °F 33.8 °F 100% 29.95 in 6.0 mi East 6.9 mph - 0.00 in Rain Light Rain
5:44 PM 33.8 °F 30.8 °F 33.8 °F 100% 29.93 in 2.0 mi ENE 3.5 mph - 0.00 in Rain Light Rain
5:53 PM 35.1 °F 31.0 °F 34.0 °F 96% 29.95 in 2.5 mi ENE 4.6 mph - 0.00 in   Overcast
6:04 PM 35.6 °F 30.7 °F 33.8 °F 93% 29.94 in 4.0 mi NW 5.8 mph - N/A   Overcast
6:53 PM 35.1 °F - 34.0 °F 96% 29.97 in 7.0 mi Calm Calm - 0.00 in Rain Light Rain
7:53 PM 35.1 °F 29.3 °F 34.0 °F 96% 29.97 in 6.0 mi NW 6.9 mph - 0.05 in Rain Light Rain
8:53 PM 35.1 °F 30.1 °F 34.0 °F 96% 29.95 in 3.0 mi NW 5.8 mph - 0.00 in Rain Light Rain
9:15 PM 35.6 °F 31.7 °F 33.8 °F 93% 29.91 in 2.5 mi NW 4.6 mph - 0.00 in   Overcast
9:53 PM 35.1 °F 31.0 °F 35.1 °F 100% 29.92 in 2.5 mi WNW 4.6 mph - 0.00 in   Overcast
10:16 PM 35.6 °F - 35.6 °F 100% 29.90 in 3.0 mi Calm Calm - N/A   Overcast
10:53 PM 35.1 °F 31.0 °F 34.0 °F 96% 29.91 in 4.0 mi West 4.6 mph - N/A   Overcast
11:06 PM 35.6 °F 31.7 °F 35.6 °F 100% 29.88 in 3.0 mi WNW 4.6 mph - 0.01 in Rain Light Rain
11:20 PM 35.6 °F 30.7 °F 35.6 °F 100% 29.88 in 5.0 mi WNW 5.8 mph - 0.02 in Rain Light Rain
11:32 PM 35.6 °F 28.6 °F 35.6 °F 100% 29.88 in 6.0 mi WNW 9.2 mph - 0.03 in Rain Light Rain
11:53 PM 35.1 °F 27.4 °F 34.0 °F 96% 29.90 in 7.0 mi WNW 10.4 mph - 0.04 in Rain Light Rain